Location: Bord�res
(43.2000°N, 0.2167°W)
Time: 14:46:05
(UTC+00:00)

Meteor 1-13 Rocket - Pass Details

Date: 03 March 2021
Orbit: 830 x 913 km, 81.3° (Epoch: 13 April)

Event Time Altitude Azimuth Distance (km) Brightness Sun altitude
Rises 19:36:29 0° 351° (N) 3,555 7.7 -19.7°
Reaches altitude 10° 19:38:59 10° 354° (N) 2,606 6.9 -20.1°
Maximum altitude 19:44:56 70° 78° (ENE) 959 4.2 -21.2°
Enters shadow 19:48:37 24° 158° (SSE) 1,779 5.6 -21.8°
